Location: Spring Creek
(38.2870°N, 100.2160°W)
Time: 13:12:46
(UTC+00:00)

Cosmos 2074 Rocket - Pass Details

Date: 08 May 2021
Orbit: 967 x 986 km, 82.9° (Epoch: 22 June)

Event Time Altitude Azimuth Distance (km) Brightness Sun altitude
Rises 04:13:17 0° 358° (N) 3,701 7.8 -25.1°
Reaches altitude 10° 04:15:55 10° 4° (N) 2,750 7.0 -25.4°
Maximum altitude 04:22:02 51° 79° (E) 1,228 4.3 -26.1°
Enters shadow 04:22:24 50° 91° (E) 1,237 4.2 -26.2°
